�������l�o���
Date,Time,MP-1(��Sv/h),MP-2(��Sv/h),MP-3(��Sv/h),MP-4(��Sv/h),MP-5(��Sv/h),MP-6(��Sv/h),MP-7(��Sv/h),����,����(m/s),���J
2018/11/06,00:00,0.316,0.193,0.313,0.300,0.281,0.157,0.095,�k�k��,1.9,��
2018/11/06,00:10,0.312,0.194,0.312,0.300,0.283,0.157,0.096,�k��,2.5,��
2018/11/06,00:20,0.315,0.194,0.312,0.300,0.282,0.157,0.096,���k��,0.7,��
2018/11/06,00:30,0.314,0.194,0.313,0.301,0.284,0.157,0.096,�k�k��,1.3,��
2018/11/06,00:40,0.315,0.193,0.312,0.299,0.283,0.157,0.096,�k�k��,2.7,��
2018/11/06,00:50,0.313,0.194,0.313,0.300,0.282,0.157,0.096,�k,3.7,��
2018/11/06,01:00,0.314,0.195,0.314,0.299,0.283,0.157,0.096,�k,2.9,��
2018/11/06,01:10,0.315,0.193,0.312,0.300,0.281,0.157,0.096,�k,2.7,��
2018/11/06,01:20,0.313,0.195,0.313,0.301,0.283,0.157,0.096,�k,3.6,��
2018/11/06,01:30,0.316,0.193,0.312,0.300,0.281,0.156,0.096,�k,4.2,��
2018/11/06,01:40,0.313,0.193,0.311,0.301,0.284,0.157,0.097,�k,2.5,��
2018/11/06,01:50,0.316,0.195,0.312,0.300,0.280,0.157,0.095,�k,3.6,��
2018/11/06,02:00,0.313,0.193,0.313,0.299,0.283,0.157,0.095,�k�k��,2.1,��
2018/11/06,02:10,0.315,0.195,0.313,0.299,0.281,0.156,0.097,�k�k��,2.1,��
2018/11/06,02:20,0.315,0.193,0.313,0.301,0.283,0.157,0.096,�k�k��,3.4,��
2018/11/06,02:30,0.314,0.193,0.314,0.300,0.281,0.157,0.096,�k,2.8,��
2018/11/06,02:40,0.315,0.193,0.312,0.299,0.283,0.157,0.096,�k�k��,1.7,��
2018/11/06,02:50,0.314,0.194,0.314,0.300,0.282,0.158,0.096,�k�k��,2.6,��
2018/11/06,03:00,0.313,0.193,0.312,0.299,0.282,0.157,0.097,�k,3.3,��
2018/11/06,03:10,0.313,0.193,0.313,0.301,0.283,0.158,0.097,�k,3.2,��
2018/11/06,03:20,0.315,0.194,0.313,0.300,0.281,0.157,0.097,�k,2.2,��
2018/11/06,03:30,0.313,0.193,0.311,0.300,0.283,0.158,0.095,�k,3.3,��
2018/11/06,03:40,0.314,0.195,0.314,0.300,0.282,0.157,0.096,�k,3.4,��
2018/11/06,03:50,0.313,0.194,0.312,0.300,0.283,0.158,0.096,�k,3.6,��
2018/11/06,04:00,0.315,0.195,0.316,0.302,0.281,0.157,0.096,�k,3.9,��
2018/11/06,04:10,0.315,0.194,0.312,0.299,0.284,0.158,0.097,�k,4.1,��
2018/11/06,04:20,0.314,0.193,0.314,0.301,0.280,0.157,0.097,�k,3.6,��
2018/11/06,04:30,0.314,0.194,0.312,0.300,0.284,0.157,0.096,�k,4.9,��
2018/11/06,04:40,0.314,0.194,0.312,0.301,0.281,0.157,0.097,�k,5.0,��
2018/11/06,04:50,0.316,0.194,0.312,0.299,0.283,0.158,0.097,�k,5.1,��
2018/11/06,05:00,0.314,0.193,0.313,0.301,0.280,0.157,0.096,�k,5.1,��
2018/11/06,05:10,0.316,0.195,0.314,0.300,0.283,0.156,0.096,�k,4.9,��
2018/11/06,05:20,0.314,0.193,0.311,0.299,0.282,0.157,0.096,�k�k��,4.4,��
2018/11/06,05:30,0.315,0.194,0.315,0.299,0.283,0.157,0.096,�k,4.5,��
2018/11/06,05:40,0.313,0.194,0.311,0.299,0.282,0.158,0.096,�k,4.4,��
2018/11/06,05:50,0.315,0.193,0.314,0.299,0.283,0.157,0.096,�k,4.0,��
2018/11/06,06:00,0.313,0.194,0.312,0.298,0.281,0.157,0.096,�k,3.8,��
2018/11/06,06:10,0.314,0.193,0.313,0.298,0.283,0.158,0.097,�k,3.4,��
2018/11/06,06:20,0.312,0.195,0.312,0.300,0.281,0.157,0.096,�k,3.0,��
2018/11/06,06:30,0.315,0.193,0.313,0.301,0.284,0.157,0.096,�k,3.2,��
2018/11/06,06:40,0.313,0.194,0.311,0.299,0.280,0.157,0.096,�k,3.1,��
2018/11/06,06:50,0.314,0.192,0.312,0.300,0.283,0.157,0.096,�k�k��,3.3,��
2018/11/06,07:00,0.313,0.192,0.313,0.297,0.281,0.158,0.096,�k�k��,3.1,��
2018/11/06,07:10,0.315,0.194,0.311,0.300,0.282,0.157,0.096,�k,2.7,��
2018/11/06,07:20,0.313,0.192,0.314,0.299,0.281,0.157,0.095,�k,3.0,��
2018/11/06,07:30,0.315,0.193,0.312,0.301,0.283,0.157,0.096,�k,3.7,��
2018/11/06,07:40,0.312,0.195,0.313,0.299,0.280,0.157,0.095,�k,3.9,��
2018/11/06,07:50,0.316,0.194,0.311,0.300,0.283,0.156,0.096,�k,4.2,��
2018/11/06,08:00,0.313,0.194,0.314,0.298,0.280,0.157,0.096,�k,3.4,��
2018/11/06,08:10,0.316,0.193,0.312,0.301,0.284,0.156,0.096,�k�k��,3.4,��
2018/11/06,08:20,0.314,0.194,0.314,0.299,0.281,0.158,0.096,�k,3.3,��
2018/11/06,08:30,0.316,0.194,0.311,0.301,0.283,0.157,0.097,�k,2.0,��
2018/11/06,08:40,0.315,0.194,0.315,0.298,0.282,0.158,0.096,�k,2.4,��
2018/11/06,08:50,0.315,0.194,0.312,0.300,0.282,0.157,0.096,�k,2.0,��
2018/11/06,09:00,0.314,0.194,0.315,0.299,0.283,0.157,0.096,�k�k��,3.0,��
2018/11/06,09:10,0.313,0.192,0.312,0.301,0.281,0.158,0.096,�k�k��,3.0,��
2018/11/06,09:20,0.315,0.194,0.312,0.300,0.284,0.157,0.095,�k,2.7,��
2018/11/06,09:30,0.314,0.192,0.312,0.299,0.281,0.158,0.096,�k,3.3,��
2018/11/06,09:40,0.315,0.195,0.313,0.300,0.282,0.156,0.097,�k,2.7,��
2018/11/06,09:50,0.313,0.194,0.312,0.298,0.283,0.158,0.096,�k,3.0,��
2018/11/06,10:00,0.316,0.194,0.311,0.302,0.280,0.157,0.096,�k�k��,3.5,��
2018/11/06,10:10,0.314,0.194,0.314,0.300,0.284,0.157,0.096,�k�k��,3.2,��
2018/11/06,10:20,0.314,0.194,0.311,0.299,0.282,0.158,0.095,�k,4.1,��
2018/11/06,10:30,0.314,0.192,0.315,0.300,0.282,0.157,0.096,�k,4.2,��
2018/11/06,10:40,0.315,0.193,0.311,0.299,0.284,0.158,0.096,�k,4.1,��
2018/11/06,10:50,0.317,0.194,0.313,0.300,0.282,0.157,0.097,�k,4.2,��
2018/11/06,11:00,0.313,0.194,0.313,0.299,0.284,0.158,0.096,�k,4.5,��
2018/11/06,11:10,0.316,0.195,0.314,0.301,0.281,0.157,0.097,�k�k��,4.5,��
2018/11/06,11:20,0.314,0.193,0.312,0.299,0.284,0.157,0.096,�k�k��,5.0,��
2018/11/06,11:30,0.316,0.195,0.312,0.300,0.283,0.157,0.097,�k�k��,5.0,��
2018/11/06,11:40,0.315,0.193,0.314,0.301,0.283,0.157,0.097,�k,5.1,��
2018/11/06,11:50,0.315,0.195,0.312,0.299,0.284,0.157,0.096,�k,4.4,��
2018/11/06,12:00,0.313,0.194,0.313,0.302,0.281,0.158,0.097,�k,4.1,�L
2018/11/06,12:10,0.317,0.195,0.314,0.298,0.285,0.158,0.096,�k,3.9,�L
2018/11/06,12:20,0.313,0.194,0.313,0.301,0.282,0.158,0.097,�k,4.1,�L
2018/11/06,12:30,0.316,0.195,0.313,0.298,0.283,0.157,0.096,�k,4.3,�L
2018/11/06,12:40,0.315,0.195,0.315,0.303,0.283,0.160,0.097,�k,5.0,�L
2018/11/06,12:50,0.316,0.196,0.312,0.301,0.284,0.159,0.098,�k,3.7,�L
2018/11/06,13:00,0.314,0.195,0.313,0.303,0.283,0.160,0.098,�k,5.2,�L
2018/11/06,13:10,0.317,0.197,0.314,0.300,0.285,0.158,0.097,�k,5.8,�L
2018/11/06,13:20,0.316,0.196,0.314,0.303,0.285,0.159,0.097,�k,5.8,��
2018/11/06,13:30,0.316,0.195,0.313,0.299,0.285,0.158,0.098,�k�k��,4.7,�L
2018/11/06,13:40,0.315,0.196,0.312,0.301,0.282,0.159,0.097,�k,5.2,�L
2018/11/06,13:50,0.313,0.194,0.313,0.299,0.283,0.158,0.098,�k,5.2,�L
2018/11/06,14:00,0.314,0.195,0.311,0.299,0.281,0.158,0.097,�k�k��,4.4,�L
2018/11/06,14:10,0.311,0.195,0.311,0.297,0.283,0.157,0.098,���쐼,3.2,�L
2018/11/06,14:20,0.314,0.194,0.309,0.297,0.281,0.158,0.098,�k�k��,4.5,�L
2018/11/06,14:30,0.309,0.193,0.307,0.294,0.281,0.157,0.098,�k�k��,7.5,�L
2018/11/06,14:40,0.310,0.194,0.306,0.297,0.280,0.157,0.098,�k��,1.8,�L
2018/11/06,14:50,0.309,0.195,0.306,0.295,0.282,0.157,0.099,-,CALM,�L
2018/11/06,15:00,0.311,0.196,0.308,0.296,0.280,0.159,0.100,�k,3.1,�L
2018/11/06,15:10,0.311,0.196,0.307,0.296,0.283,0.159,0.100,�k,5.6,�L
2018/11/06,15:20,0.313,0.195,0.308,0.296,0.281,0.159,0.102,�k,4.9,�L
2018/11/06,15:30,0.312,0.195,0.307,0.298,0.284,0.159,0.101,�k,5.7,�L
2018/11/06,15:40,0.312,0.195,0.307,0.296,0.282,0.159,0.102,�k�k��,5.7,�L
2018/11/06,15:50,0.312,0.196,0.306,0.296,0.282,0.159,0.101,�k,6.4,�L
2018/11/06,16:00,0.310,0.195,0.305,0.294,0.282,0.158,0.101,�k,6.8,�L
2018/11/06,16:10,0.310,0.194,0.307,0.296,0.283,0.158,0.100,�k�k��,5.2,�L
2018/11/06,16:20,0.308,0.193,0.305,0.293,0.281,0.157,0.099,�k�k��,4.7,�L
2018/11/06,16:30,0.310,0.191,0.306,0.293,0.279,0.156,0.098,�k,6.0,�L
2018/11/06,16:40,0.306,0.192,0.303,0.293,0.282,0.155,0.098,�k,5.7,�L
2018/11/06,16:50,0.308,0.191,0.303,0.293,0.280,0.155,0.097,�k,5.3,�L
2018/11/06,17:00,0.307,0.191,0.303,0.293,0.281,0.154,0.097,�k�k��,5.0,�L
2018/11/06,17:10,0.305,0.192,0.302,0.291,0.278,0.154,0.097,�k,4.5,�L
2018/11/06,17:20,0.307,0.191,0.301,0.292,0.280,0.153,0.097,�k�k��,5.6,�L
2018/11/06,17:30,0.304,0.190,0.301,0.290,0.278,0.153,0.096,�k�k��,6.2,��
2018/11/06,17:40,0.306,0.190,0.302,0.290,0.280,0.153,0.096,�k�k��,5.5,�L
2018/11/06,17:50,0.303,0.191,0.301,0.290,0.279,0.152,0.096,�k,4.5,�L
2018/11/06,18:00,0.307,0.190,0.302,0.290,0.280,0.154,0.096,�k,8.2,�L
2018/11/06,18:10,0.304,0.189,0.302,0.290,0.278,0.152,0.096,�k,4.3,�L
2018/11/06,18:20,0.305,0.190,0.301,0.290,0.278,0.153,0.094,�k,4.3,�L
2018/11/06,18:30,0.306,0.190,0.300,0.290,0.279,0.152,0.095,�k�k��,4.5,��
2018/11/06,18:40,0.304,0.189,0.300,0.289,0.277,0.152,0.095,�k,3.1,��
2018/11/06,18:50,0.305,0.189,0.301,0.291,0.279,0.151,0.094,�k,2.1,�L
2018/11/06,19:00,0.305,0.189,0.300,0.289,0.277,0.152,0.094,�k,6.7,��
2018/11/06,19:10,0.305,0.189,0.302,0.289,0.279,0.151,0.094,�k,7.4,�L
2018/11/06,19:20,0.304,0.189,0.299,0.287,0.277,0.151,0.094,�k,7.3,�L
2018/11/06,19:30,0.305,0.190,0.300,0.290,0.279,0.152,0.094,�k,8.7,��
2018/11/06,19:40,0.306,0.187,0.301,0.290,0.278,0.151,0.094,�k,8.1,�L
2018/11/06,19:50,0.306,0.189,0.300,0.290,0.279,0.151,0.094,�k,8.3,�L
2018/11/06,20:00,0.305,0.189,0.300,0.288,0.278,0.151,0.095,�k,8.2,�L
2018/11/06,20:10,0.304,0.190,0.299,0.288,0.278,0.152,0.095,�k�k��,7.1,�L
2018/11/06,20:20,0.305,0.189,0.302,0.290,0.280,0.153,0.095,�k,7.9,�L
2018/11/06,20:30,0.303,0.189,0.300,0.288,0.278,0.153,0.096,�k,8.4,�L
2018/11/06,20:40,0.306,0.190,0.301,0.290,0.280,0.152,0.096,�k,7.1,�L
2018/11/06,20:50,0.303,0.189,0.300,0.289,0.277,0.151,0.095,�k�k��,7.3,�L
2018/11/06,21:00,0.305,0.188,0.300,0.289,0.279,0.152,0.094,�k�k��,6.6,��
2018/11/06,21:10,0.304,0.188,0.300,0.289,0.277,0.151,0.093,�k�k��,6.7,��
2018/11/06,21:20,0.303,0.188,0.299,0.289,0.278,0.152,0.095,�k�k��,7.0,��
2018/11/06,21:30,0.304,0.189,0.300,0.288,0.276,0.151,0.094,�k,6.3,��
2018/11/06,21:40,0.304,0.188,0.300,0.289,0.279,0.152,0.095,�k,6.4,��
2018/11/06,21:50,0.306,0.189,0.301,0.291,0.277,0.151,0.095,�k,6.3,��
2018/11/06,22:00,0.303,0.188,0.302,0.288,0.278,0.151,0.094,�k,6.4,��
2018/11/06,22:10,0.304,0.189,0.300,0.289,0.278,0.151,0.094,�k,6.0,�L
2018/11/06,22:20,0.302,0.188,0.299,0.287,0.278,0.151,0.094,�k,5.4,�L
2018/11/06,22:30,0.304,0.187,0.299,0.288,0.278,0.151,0.094,�k,4.5,��
2018/11/06,22:40,0.303,0.188,0.302,0.288,0.276,0.151,0.094,�k,6.1,��
2018/11/06,22:50,0.305,0.188,0.298,0.288,0.279,0.150,0.094,�k,6.0,��
2018/11/06,23:00,0.302,0.187,0.299,0.287,0.276,0.150,0.093,�k,7.3,��
2018/11/06,23:10,0.303,0.188,0.300,0.289,0.279,0.150,0.094,�k,8.1,��
2018/11/06,23:20,0.304,0.187,0.300,0.288,0.276,0.150,0.094,�k,7.9,��
2018/11/06,23:30,0.303,0.188,0.300,0.287,0.279,0.150,0.093,�k,7.9,��
2018/11/06,23:40,0.304,0.187,0.298,0.289,0.277,0.151,0.092,�k,7.2,��
2018/11/06,23:50,0.302,0.188,0.301,0.287,0.276,0.151,0.092,�k,7.6,��
